INTELSAT 33E DEB, 64409

Orbit data source: Space-Track

INTELSAT 33E DEB, 64409 is space debris in GEO originally from a launch on Wed, 24 Aug 2016 UTC launched from the French Guiana (FRGUI). Debris objects in space refer to the collection of defunct objects orbiting the Earth. Examples of debris include non-operational satellites, rocket bodies, and fragments generated from explosions, collisions, or faulty payload assembly.

Not visible in the next 10 days
Identifier
64409, 2016-053AP
Orbit
GEO
Country
Flag of USUS / ITSO
Related business
Manufacturer
Boeing/ES
Mission
Spacecraft
Bus & Motor
Unknown
Mass
Unknown
Launch date (UTC)
2016-08-24 (10 years ago)
Launch vehicle
Unknown
Launch site
French Guiana (FRGUI)
Object type
Payload
Rocket body
Debris
Shape & HBR
Unknown shape, 1.1 m
Radar Cross Section
RCS unknown

Expand to show TLE details & history
Last TLE update: 12 hours ago

TLE from 12 hours ago
0 INTELSAT 33E DEB
1 64409U 16053AP  26166.16830604 -.00000249  00000-0  00000+0 0  9992
2 64409   1.5209  78.9914 0053617  78.5007 281.0550  0.99468233  5841
Epoch: 2026-06-15T04:02Z
TLE epoch observation values (Epoch: 2026-06-15T04:02:21.641Z)
Latitude
-0°
Longitude
113.90047°
Altitude
35,970.02 km
Speed
3.07 km/s
True Right ascension
05h 11m 47s
True Declination
0° 00' 00"
Sunlit
Object was in daylight at epoch
Visualization orbit readout
Latitude
Unknown
Longitude
Unknown
Altitude
Unknown
Speed
Unknown
Apparent Right ascension
Unknown
Apparent Declination
Unknown
Sunlit
N/A
Visualization observer readout
Local Sidereal Time
02:31:53
Azimuth
Unknown
Elevation
Unknown
Doppler factor
Unknown
Orbital elements
Apogee altitude
36,241.735 km
Perigee altitude
35,787.143 km
Semi-major axis
42,392.576 km
Eccentricity
0.00536
Inclination
1.5209°
RAAN
78.9914°
Arg. of periapsis
78.5007°
True anomaly
280.45123°
Mean anomaly
281.055°
Eccentric anomaly
280.75319°
Mean motion
0.24866 °/min
Orbital period
1,447.75 mins
BSTAR
0
Loading maneuver chart data...
Computing Atmospheric mass density...
Loading historical data...
Loading historical data...
Loading historical data...
Loading historical data...
Loading historical data...
Loading historical data...
Loading historical data...

Documentation

Showing up to 5 results
|